Showing default

KINEIS-1B, 60079

Orbit data source: Space-Track

KINEIS-1B, 60079 is a French payload satellite in SSO that was launched on Thu, 20 Jun 2024 UTC via an ELECTRON launch vehicle from the Rocket Lab Launch Complex (RLLC). Payload-class satellites include a variety of spacecraft equipped with specific instruments for various scientific and technological missions. These include communications satellites like Starlink; space stations such as the ISS; scientific satellites like the Hubble; Earth observation satellites from companies like Planet Labs, Umbra, and HawkEye 360; GPS; miniature CubeSats for education and research; and military/defense satellites.

Loading next visibility...
Identifier
60079, 2024-114A
Orbit
SSO
Last TLE update
8 hours ago
Origin
Manufacturer
KINEIS
Mission
Operational Commercial Communications
Bus & Motor
CUBESAT 16U, Unknown motor
Mass
28 kg wet, 28 kg dry
Launch date (UTC)
2024-06-20 (1 year ago)
Launch vehicle
ELECTRON
Launch site
Rocket Lab Launch Complex (RLLC)
Object type
Payload
Rocket body
Debris
Shape & HBR
Box + 2 Pan + 1 Ant, 1.6 m
Radar Cross Section
0.229 m², Medium (>0.1 m² and < 1m²)

Expand to show TLE details & history

TLE from 8 hours ago
0 KINEIS-1B
1 60079U 24114A   25183.82558885  .00000720  00000-0  10298-3 0  9994
2 60079  98.0082 204.3596 0003595 127.9916 232.1621 14.79677385 55720
Epoch: 2025-07-02T19:48Z
TLE epoch observation values (Epoch: 2025-07-02T19:48:50.876Z)
Latitude
0.00001°
Longitude
-13.95351°
Altitude
634.907 km
Speed
7.54 km/s
True Right ascension
13h 37m 26s
True Declination
0° 00' 00"
Sunlit
Object was in daylight at epoch
Visualization orbit readout
Latitude
-45.34379°
Longitude
-5.48382°
Altitude
650.367 km
Speed
7.53 km/s
Apparent Right ascension
08h 56m 38s
Apparent Declination
-79° 38' 57"
Sunlit
Object is in full shadow
Visualization observer readout
Local Sidereal Time
15:28:34
Azimuth
193.547° SSW
Elevation
-40.569°
Doppler factor
1
Orbital elements
Apogee altitude
629.907 km
Perigee altitude
624.87 km
Semi-major axis
7,005.526 km
Eccentricity
0.00036
Inclination
98.0082°
RAAN
204.3596°
Arg. of periapsis
127.9916°
True anomaly
Unknown
Mean anomaly
232.1621°
Eccentric anomaly
Unknown
Mean motion
3.70154 °/min
Orbital period
97.26 mins
BSTAR
0.00010298
Loading maneuver chart data...
Loading SW <> Apogee altitude chart data...
Loading historical data...
Loading historical data...
Loading historical data...
Loading historical data...
Loading historical data...
Loading historical data...
Loading historical data...

KINEIS-1B Visibility forecast

Observer location: undefined°, undefined°

Span
Click to sort rows by Start time (UTC) header in descending order
Start Az.
Max El. time (UTC)
Max El. Az.
Max El.
End time (UTC)
End Az.
7 mins2025-07-03 14:14:20.877Z14.628° NNE2025-07-03 14:17:20.877Z31.82° NE43.661°2025-07-03 14:21:20.877Z191.253° SSW
6 mins2025-07-04 01:10:20.877Z147.829° SSE2025-07-04 01:12:20.877Z102.379° ESE40.849°2025-07-04 01:16:20.877Z355.739° N
|